Theta_e
336 339 341 341 343 345 347 345 344 344 343 343 343 344 344 345 343 337 330 326 327 329 331 334 339 342 343 342 340 338 336 336 338 338 338 338 340 342 343 345 348 349 351 353 354 354 354 354 354 354 354 354 354 353 353 353 352 351 350 348 347 345 344 343 343 344 345 345 345 345 345 345 346 346
336 340 343 343 345 347 347 345 346 346 346 346 346 346 345 345 341 335 331 329 330 331 333 333 335 339 341 338 336 334 334 335 336 336 337 340 343 345 346 348 350 352 354 354 355 355 354 354 354 354 353 353 353 353 351 348 346 344 341 340 341 341 341 342 343 344 346 346 346 346 345 345 345 345
339 340 343 345 345 346 346 347 347 347 347 346 346 346 346 344 340 337 336 336 336 335 334 333 333 334 334 334 332 333 333 334 335 337 340 344 345 346 348 350 351 352 353 354 354 355 354 354 353 353 353 352 351 348 343 340 337 334 334 337 339 339 340 340 341 341 342 343 343 344 344 344 344 344
341 341 342 342 343 345 346 347 347 347 347 346 345 345 344 342 340 339 341 340 339 339 337 334 332 332 332 332 332 331 331 333 335 338 343 345 346 348 349 350 350 350 350 352 353 354 354 353 352 351 351 348 344 339 335 332 331 331 333 334 335 334 334 334 333 334 335 336 337 338 339 340 341 342
343 342 341 340 341 343 346 347 347 347 347 346 345 345 343 340 339 341 342 341 339 339 339 336 333 333 332 331 332 331 331 332 334 338 344 345 345 347 348 348 348 349 349 351 352 353 354 353 350 346 343 341 337 332 330 328 327 328 329 329 328 327 327 327 327 329 331 334 336 337 338 339 339 339
341 341 341 341 340 340 343 344 346 346 345 344 344 344 342 339 339 342 343 342 339 336 337 336 333 333 331 330 332 332 331 331 331 334 341 344 343 344 346 347 349 352 352 351 351 352 353 351 345 339 336 335 332 329 326 325 325 325 325 324 324 323 323 322 323 326 327 329 330 332 334 338 340 340
339 340 340 341 340 340 340 342 343 343 342 341 341 341 341 339 339 341 342 342 340 336 334 334 333 331 330 329 331 332 330 331 330 331 338 344 344 344 347 349 351 353 353 351 351 352 351 345 339 336 335 333 328 326 325 324 324 324 323 323 323 322 321 321 321 321 322 323 325 327 329 333 337 340
337 337 338 339 340 341 341 340 340 340 340 339 340 339 339 339 339 339 339 339 339 338 335 332 332 331 330 329 330 331 330 329 329 330 335 344 345 344 347 351 352 352 351 351 352 352 346 339 335 335 335 332 328 325 324 324 323 323 323 323 323 321 321 320 320 320 321 321 323 325 328 331 334 337
336 336 336 337 338 339 340 340 340 339 339 338 338 338 338 338 338 338 338 336 336 337 335 332 332 331 331 329 329 331 329 329 329 329 333 340 344 343 345 350 351 351 351 352 352 347 339 335 336 338 336 333 328 325 323 324 324 323 323 322 322 321 320 320 320 320 321 321 322 323 327 331 333 334
338 336 335 335 336 336 336 338 338 338 337 335 335 337 337 337 336 335 334 334 334 334 334 333 332 331 330 329 328 329 330 329 330 330 332 337 342 344 344 348 351 352 352 352 349 341 334 334 337 338 336 332 327 324 323 323 323 323 323 322 321 321 320 320 320 320 320 321 321 322 324 328 333 335
339 338 336 336 335 335 335 336 336 336 335 334 333 334 334 334 333 332 332 333 333 334 335 335 333 331 330 328 327 328 330 331 332 334 333 334 341 345 345 348 352 354 353 350 344 336 332 335 337 337 333 329 325 323 323 323 323 323 322 321 321 321 320 320 320 319 320 320 321 322 322 325 330 335
338 337 336 336 336 335 335 335 336 336 335 334 333 332 332 332 332 333 333 333 334 334 335 334 332 330 329 328 328 329 331 333 334 335 334 334 340 344 346 350 354 354 351 348 341 334 333 334 335 333 329 326 324 323 323 322 322 321 321 321 320 320 320 319 319 319 319 320 321 322 323 324 328 333
336 336 334 334 334 335 334 334 334 335 334 334 333 331 331 332 333 333 333 333 333 334 333 332 330 329 328 329 331 332 333 335 337 337 336 336 341 344 347 352 355 354 350 347 340 334 331 331 331 328 326 324 323 323 322 322 321 322 321 321 320 320 320 319 319 319 318 319 321 322 324 324 325 331
334 334 334 333 333 333 333 333 333 332 332 333 332 331 332 332 332 333 334 336 336 337 336 334 332 331 329 329 334 336 336 337 338 338 338 338 341 346 349 351 353 353 351 347 341 335 331 330 329 326 324 324 322 322 322 321 321 321 320 320 321 320 320 319 319 319 318 319 321 323 325 325 325 328
334 334 333 333 332 332 331 330 330 330 331 331 331 331 331 331 331 334 339 342 343 344 344 340 338 336 331 331 337 339 338 339 340 340 339 340 345 350 351 351 352 352 350 348 342 335 332 330 328 326 323 323 322 322 322 321 321 321 321 321 320 320 320 320 318 318 318 318 321 323 326 328 326 326
335 334 334 333 332 331 330 330 330 331 330 330 329 330 331 330 332 338 345 347 347 348 348 345 342 340 337 336 339 341 340 340 341 341 342 344 348 352 353 353 353 351 349 348 343 336 332 329 327 325 324 322 322 322 321 321 321 321 321 320 321 321 320 319 319 318 318 318 319 323 326 330 329 327
334 334 333 333 332 331 330 330 330 331 330 329 329 329 329 329 331 338 344 348 349 349 349 348 342 339 340 340 339 342 342 340 340 342 344 347 350 353 354 355 354 352 349 347 344 338 333 329 326 325 324 322 322 322 321 321 321 321 321 320 320 320 319 319 318 318 318 318 319 322 325 329 331 329
333 332 333 332 332 331 331 331 331 331 331 331 331 330 329 329 330 334 340 344 348 349 349 348 343 340 342 343 342 345 346 342 341 343 345 348 351 352 354 354 353 352 349 347 344 340 335 329 326 325 323 322 322 322 322 321 322 321 321 321 320 320 319 319 319 318 318 318 319 321 323 326 330 331
333 332 332 332 331 331 331 331 331 331 332 332 333 333 332 331 330 332 334 339 344 347 347 346 345 343 345 345 344 345 346 343 342 344 345 349 351 351 353 354 352 351 349 346 344 342 337 330 327 325 323 322 321 322 322 322 322 321 321 320 320 320 319 319 318 318 319 319 318 320 321 324 328 330
333 332 332 331 331 331 330 330 330 331 332 333 334 334 334 333 331 330 330 332 337 341 343 344 345 345 346 345 342 341 342 342 342 343 345 346 349 352 354 353 351 349 346 345 344 343 339 333 328 324 323 322 321 322 322 322 322 322 321 320 320 319 319 319 318 318 318 318 318 318 321 324 328 331
334 332 332 332 331 330 330 329 329 330 333 334 334 334 334 333 332 328 327 327 329 332 336 339 342 344 344 342 338 337 339 341 343 344 344 344 348 353 355 354 351 348 346 345 345 344 341 336 329 324 322 321 321 322 322 322 322 322 321 320 320 319 319 318 318 318 318 318 317 317 319 323 326 330
336 333 332 331 332 330 329 328 328 330 332 334 334 334 335 335 333 327 324 325 326 327 330 333 336 339 338 337 336 337 340 343 345 345 343 344 350 354 355 354 353 350 346 345 345 344 343 337 329 324 322 321 322 322 322 322 322 322 321 320 319 319 319 318 318 318 317 318 317 317 318 320 323 326
339 337 334 332 331 330 328 328 327 329 331 333 333 334 337 336 332 326 325 327 326 327 329 331 333 335 336 336 338 338 341 344 346 345 343 344 351 354 356 356 354 351 348 347 346 345 344 338 329 323 322 321 322 322 323 323 322 322 321 320 319 318 318 318 318 317 317 317 317 317 317 318 319 322
343 341 337 334 331 329 327 326 327 327 329 331 332 335 338 336 331 328 330 332 333 333 335 336 337 337 337 337 338 339 343 346 347 345 343 345 350 354 356 355 354 352 350 349 347 346 345 337 328 323 322 321 322 323 323 322 322 322 321 320 319 318 317 317 317 317 317 317 317 317 317 317 317 318
344 342 339 336 332 329 327 326 327 328 329 331 333 335 337 335 333 334 336 338 338 340 341 341 342 341 341 341 341 341 344 347 347 347 346 348 351 354 355 355 353 352 351 350 348 347 344 336 327 323 322 322 322 324 323 323 322 321 321 320 319 318 318 317 317 317 317 317 316 316 316 316 316 317
345 342 340 336 334 332 331 330 331 333 333 336 338 338 338 338 338 340 341 343 344 345 345 345 346 346 346 346 344 344 345 347 348 348 349 351 352 352 353 353 351 350 350 349 348 345 340 332 326 323 322 322 324 324 324 323 322 321 320 320 319 319 318 317 317 317 317 317 317 316 316 316 316 316
346 344 342 340 338 338 337 337 338 339 340 343 343 343 344 344 345 346 346 347 348 348 349 350 350 350 350 348 346 345 346 348 349 350 351 352 352 353 353 352 350 348 349 348 346 341 335 329 325 323 322 323 324 324 324 322 321 321 320 320 320 319 319 318 318 317 317 317 316 316 316 316 316 316
347 347 346 344 343 343 343 343 344 345 347 348 348 348 349 349 350 350 350 349 349 349 350 351 350 349 349 348 346 346 348 350 352 353 353 354 354 354 352 351 349 348 347 345 342 338 332 327 324 323 323 324 325 325 324 323 321 321 321 321 321 320 320 320 319 318 318 317 317 317 316 317 316 316
349 349 348 347 346 347 347 349 351 351 351 351 351 351 352 352 352 352 352 351 350 349 349 348 347 347 346 346 348 350 352 353 353 354 354 354 353 352 351 349 349 347 346 344 340 335 330 326 324 323 324 324 325 325 324 323 322 322 321 321 321 321 321 321 320 319 319 318 317 317 317 317 316 316
351 351 350 350 350 350 351 352 353 352 351 351 352 353 354 354 354 354 354 353 351 350 349 348 348 347 347 349 351 353 353 353 354 353 353 352 351 349 349 349 349 347 345 342 337 332 328 325 324 324 325 325 325 326 325 324 323 322 321 322 321 321 321 321 321 320 319 318 318 317 317 317 316 316
353 353 352 353 353 353 353 354 354 353 352 352 353 354 355 355 355 355 355 355 352 351 350 350 350 351 351 352 354 354 354 354 353 353 352 351 349 349 349 350 349 345 342 338 334 330 328 325 324 325 325 325 326 326 325 324 323 323 322 322 322 322 322 322 321 321 320 319 319 318 318 317 316 316
353 354 353 354 354 355 355 355 354 352 351 351 352 354 355 355 356 356 357 355 355 353 353 352 353 353 354 355 355 355 355 355 354 354 353 351 351 351 352 350 347 344 341 337 333 330 327 325 325 326 326 326 326 326 326 324 323 323 323 323 322 322 322 322 322 321 320 320 320 319 318 318 316 316
354 354 354 354 355 354 355 353 353 351 350 352 353 355 355 356 357 357 357 357 356 356 356 356 355 355 356 357 357 357 356 355 354 354 353 352 353 352 350 346 344 343 341 336 332 329 327 325 326 327 327 327 327 326 326 325 324 323 323 323 323 323 322 322 322 322 321 321 320 320 319 319 317 315
356 356 355 355 355 355 354 353 352 352 352 353 354 355 356 357 357 358 358 358 358 357 357 357 358 358 358 357 356 355 354 354 354 354 353 353 353 351 348 345 343 341 337 332 330 329 327 326 326 327 328 328 327 326 326 325 324 324 323 324 323 323 323 322 322 322 322 321 321 321 320 319 318 316
357 356 355 355 354 354 353 353 353 353 354 354 355 356 357 358 358 358 358 359 359 358 358 358 358 359 359 357 354 354 354 354 354 353 354 353 352 350 347 344 341 337 332 328 328 329 327 326 328 328 328 328 327 326 326 325 324 324 324 324 324 323 323 323 322 322 322 322 322 321 320 319 318 317
357 357 355 353 353 353 353 353 353 354 354 355 356 357 358 358 358 357 358 358 359 359 359 358 358 359 359 357 355 355 355 355 354 354 355 354 351 349 346 340 334 331 329 327 328 328 326 326 328 328 329 329 327 326 326 326 325 325 324 324 324 324 323 323 322 322 322 322 322 321 321 320 319 317
358 357 355 354 354 354 353 353 354 354 355 356 356 357 358 358 358 357 358 359 359 359 358 357 357 358 358 358 357 356 355 355 354 354 354 351 349 346 341 336 332 330 329 328 328 326 325 325 327 328 328 328 327 326 326 326 325 325 325 324 324 324 323 323 323 322 322 322 322 321 321 320 319 318
357 357 357 356 355 355 355 355 355 355 356 357 357 358 358 359 359 358 359 359 360 358 357 357 357 357 357 358 357 355 355 354 354 353 351 349 347 343 340 337 334 332 330 329 328 327 326 327 328 328 327 327 327 326 326 326 325 325 325 325 325 324 323 323 323 322 322 322 322 322 321 321 320 319
356 356 356 356 356 356 356 355 356 357 357 357 358 358 358 358 358 358 359 359 359 359 358 357 357 357 357 357 356 355 355 354 353 352 349 347 344 341 339 338 334 330 328 330 329 327 326 327 327 327 327 327 326 326 326 326 326 325 325 325 325 324 324 323 323 323 322 322 322 322 321 321 321 320
357 356 355 355 354 355 356 356 357 358 357 358 359 359 358 358 357 357 358 359 360 359 358 357 358 358 357 356 355 354 354 353 352 351 348 344 341 340 338 335 332 329 329 331 330 328 327 327 327 327 327 327 326 326 326 326 326 326 325 325 325 324 324 323 323 323 323 323 322 322 322 321 321 321
359 357 356 356 355 355 357 358 357 357 358 359 359 358 358 358 357 356 357 358 359 359 358 358 357 356 355 355 354 354 354 353 351 350 347 344 342 339 336 333 332 330 331 332 330 328 327 327 328 328 327 327 327 326 326 326 326 325 325 325 325 324 324 323 323 323 323 323 322 322 322 322 321 321
360 359 358 357 357 358 358 357 354 354 357 359 358 356 357 359 357 355 354 355 356 357 357 358 358 357 356 356 355 354 353 351 350 348 347 344 340 336 333 333 333 332 332 332 331 328 327 328 328 327 327 327 327 326 326 326 325 325 325 324 324 324 323 323 323 322 322 322 322 322 322 322 322 321
360 360 359 358 358 359 359 357 354 353 357 360 360 357 357 358 357 353 352 353 354 355 355 356 357 357 356 355 353 351 350 349 347 346 344 340 336 332 332 332 333 332 331 332 331 328 327 328 328 328 328 327 326 326 326 325 325 324 324 323 323 323 323 322 322 321 322 322 322 322 322 322 321 321
360 359 359 360 360 359 358 358 358 358 360 361 358 355 356 358 356 353 353 354 354 354 354 354 355 356 354 353 351 349 348 346 343 341 338 335 332 332 332 331 331 330 331 332 331 329 328 328 328 328 327 327 326 325 325 324 324 324 323 323 323 322 322 321 321 321 321 321 321 322 322 322 322 322
360 360 360 361 360 359 360 360 361 360 361 359 355 354 356 359 356 354 355 356 356 355 355 355 355 354 351 350 349 347 345 341 338 335 334 332 331 332 331 331 330 330 330 330 329 328 328 328 328 328 327 326 326 325 325 324 324 324 323 323 322 321 321 320 320 319 320 320 321 321 321 322 321 321
Wind_Speed
14 14 14 14 12 10 9 7 5 4 5 6 6 6 7 8 9 11 11 10 9 8 8 8 9 10 11 12 12 13 14 15 17 18 18 18 17 15 14 12 11 11 11 11 12 12 12 12 12 13 14 15 16 17 18 19 20 21 22 24 25 24 22 21 20 19 18 18 19 20 21 21 21 20
15 17 16 15 13 11 9 8 7 6 6 7 7 8 9 9 9 10 11 11 9 7 6 6 8 10 11 11 12 13 14 15 16 16 15 14 13 11 9 8 9 9 10 11 12 13 13 13 14 15 16 16 17 18 19 20 21 22 23 24 24 21 19 18 18 17 16 16 16 17 18 19 20 21
16 19 18 16 14 13 11 10 9 9 9 9 10 10 11 11 10 9 10 10 8 6 5 5 6 8 9 9 10 11 12 13 13 12 11 10 8 6 6 7 8 10 11 13 13 14 14 15 16 16 17 18 18 19 20 20 21 22 23 22 21 20 20 20 20 20 19 18 18 18 19 19 19 20
15 18 19 18 17 15 13 12 12 12 12 12 13 13 13 13 12 11 10 10 8 6 6 5 5 7 7 7 10 10 9 10 11 10 9 7 5 3 4 7 9 11 12 13 14 15 16 17 17 17 17 18 18 19 19 20 21 21 22 22 22 23 23 24 24 23 22 20 19 19 19 20 20 19
15 17 18 18 18 18 17 16 15 14 14 15 15 15 15 15 14 13 11 12 11 7 5 5 5 6 7 7 9 11 10 10 10 9 8 7 5 4 5 7 10 12 14 15 15 16 16 17 18 18 17 17 17 17 18 19 21 22 22 23 24 25 26 26 26 25 24 22 20 19 19 18 18 18
16 17 17 16 16 18 19 19 18 18 17 18 18 18 17 17 16 14 13 14 15 11 6 5 5 6 7 9 10 11 12 12 12 10 8 7 6 7 8 9 11 13 16 18 17 16 17 18 18 17 16 15 15 16 18 19 21 22 23 24 25 26 27 28 28 29 28 27 24 22 21 19 17 16
17 18 18 17 16 17 19 19 19 20 20 19 19 18 18 18 16 15 16 16 17 16 11 6 5 6 8 10 11 12 13 13 14 13 10 8 8 9 10 11 12 14 18 19 17 16 17 17 16 15 13 13 14 16 18 20 21 22 23 24 26 27 28 29 30 31 31 30 29 25 22 20 19 18
19 19 19 19 18 18 19 19 19 19 19 19 18 18 17 17 17 16 18 18 18 19 16 11 9 9 10 11 13 14 14 14 15 14 12 10 10 11 11 12 14 16 17 17 16 16 16 15 14 13 11 12 15 17 18 20 21 21 22 24 26 28 29 30 31 31 31 30 29 27 23 21 19 19
20 21 21 20 19 20 20 20 19 18 18 18 18 18 18 17 17 17 18 19 19 20 20 16 14 13 13 13 13 14 16 16 15 14 12 11 11 11 12 13 16 16 15 13 14 14 14 14 13 12 12 13 16 18 19 20 20 20 23 25 26 27 29 30 31 31 30 29 28 27 24 22 20 18
21 21 21 21 20 21 21 21 20 19 19 19 19 19 18 17 17 17 17 18 19 20 20 19 17 15 14 14 13 14 16 18 18 17 14 12 12 13 13 14 15 14 12 12 13 12 12 13 13 12 13 15 17 18 18 19 19 21 24 25 26 27 28 29 30 30 29 28 28 27 25 23 21 18
22 22 22 22 21 22 22 21 21 20 19 19 19 19 18 17 17 17 17 17 18 19 20 19 18 15 14 14 14 15 16 17 18 18 18 15 13 14 14 13 12 11 10 11 12 11 11 12 12 12 14 16 17 18 18 18 19 21 23 24 25 27 28 28 28 28 28 28 27 27 25 23 21 19
22 22 22 22 22 22 22 22 22 21 20 20 19 19 18 18 17 17 17 16 17 18 18 18 17 16 15 15 15 16 16 17 17 17 17 16 14 14 14 12 11 10 9 9 10 10 10 11 11 13 15 16 17 17 17 17 19 21 22 24 25 26 27 27 27 27 28 27 27 26 25 22 21 20
24 23 22 22 22 22 22 22 22 21 21 21 20 19 18 18 18 18 17 17 17 17 18 17 16 16 16 15 16 16 17 17 17 16 16 15 14 14 13 10 10 12 11 9 9 10 11 11 12 13 15 16 16 17 16 17 19 21 22 23 24 25 25 25 26 27 28 27 26 25 24 22 20 19
25 24 23 22 21 21 21 22 22 21 21 21 22 21 19 19 20 19 18 17 16 16 17 16 15 16 17 16 16 17 17 16 16 16 15 15 14 13 11 8 9 12 13 11 10 11 12 12 13 14 15 16 16 16 16 17 19 21 22 23 24 24 24 25 26 27 28 27 26 25 23 21 19 18
26 25 24 24 23 22 22 21 21 21 22 22 22 22 21 21 21 19 17 16 15 15 16 16 16 17 18 17 16 17 17 16 16 16 16 15 14 14 12 10 11 13 13 12 11 12 13 13 14 15 15 16 16 16 16 17 19 21 22 23 23 24 24 26 27 28 28 27 27 26 25 21 18 16
27 26 26 25 24 24 23 22 22 22 22 22 23 23 23 22 21 19 17 16 16 17 18 18 18 19 19 18 17 17 18 17 16 17 16 15 14 14 14 13 13 13 13 11 11 12 13 14 14 15 15 15 15 15 15 17 19 20 21 22 22 23 25 27 27 28 28 27 28 28 27 23 18 14
29 28 27 27 26 25 24 23 23 23 23 23 23 23 24 23 23 21 19 19 19 20 21 22 21 20 19 19 17 17 18 18 18 18 17 15 15 15 14 14 14 14 13 11 11 12 13 14 15 15 15 15 15 14 15 16 18 20 21 21 22 23 25 26 27 27 27 27 28 28 28 25 21 14
30 29 28 28 28 27 26 26 25 24 23 22 22 22 23 23 24 23 22 21 21 21 23 24 24 21 19 19 19 18 20 21 20 19 19 17 17 16 16 15 15 15 13 12 11 12 12 14 15 15 15 15 15 14 15 16 18 19 20 21 22 23 24 25 26 27 27 27 27 27 27 27 24 17
30 29 29 29 28 28 27 26 25 24 23 23 22 22 22 22 23 24 24 23 22 23 23 24 24 22 21 21 21 20 21 22 21 21 21 20 19 18 17 16 16 15 14 13 12 13 13 14 15 15 14 14 14 14 15 16 17 19 20 21 22 23 24 25 25 26 26 27 26 26 26 27 26 22
30 30 29 29 29 28 27 26 25 24 24 24 24 23 22 22 23 25 25 24 24 23 23 24 24 23 23 23 23 23 23 22 21 21 22 22 20 19 18 17 15 15 14 13 13 14 14 15 15 15 14 13 13 13 15 16 17 19 20 20 21 23 23 24 25 25 25 26 26 26 25 25 25 23
31 30 30 30 29 29 28 27 26 25 25 25 25 25 24 24 24 25 24 23 23 23 23 24 24 25 25 26 26 24 23 22 21 22 22 21 19 19 20 18 15 15 15 14 15 14 14 15 15 15 14 13 12 12 15 16 17 18 19 19 20 22 23 23 24 24 24 25 26 27 25 23 22 20
31 31 31 31 31 31 30 28 27 26 26 26 26 26 26 26 26 25 23 23 24 24 24 25 26 26 26 26 25 23 22 21 21 23 23 20 19 20 20 18 16 16 16 15 15 14 15 16 15 13 13 14 12 12 14 15 16 17 17 18 19 20 21 21 22 23 23 24 25 27 27 24 22 19
30 31 31 31 32 32 31 29 28 27 27 28 27 27 27 28 28 25 22 23 24 24 24 24 24 24 24 23 23 23 22 22 23 23 22 20 20 21 20 18 17 18 17 15 14 15 16 17 14 11 11 12 13 13 13 13 14 15 16 16 17 18 19 19 19 20 21 23 25 26 27 26 24 21
30 30 30 30 31 31 30 29 28 28 28 29 28 28 29 30 28 24 23 23 23 22 23 22 22 23 23 23 24 24 24 24 24 23 20 18 19 19 18 17 17 18 18 17 16 16 17 16 14 11 10 10 11 12 12 12 13 14 14 14 15 17 18 17 17 18 20 22 24 25 26 27 27 25
31 30 29 27 27 28 28 28 28 28 28 28 29 29 30 30 27 26 26 26 25 24 25 24 25 25 25 26 26 26 25 25 24 21 17 16 16 17 17 17 17 18 19 19 17 16 17 16 14 11 10 9 9 9 10 11 12 13 13 12 13 15 17 17 18 19 20 22 23 24 25 27 28 28
33 31 29 26 24 24 25 25 25 25 25 26 26 27 26 26 26 27 28 28 28 28 28 28 28 28 28 29 29 28 27 26 24 20 16 15 16 16 17 18 19 19 19 18 17 17 17 16 13 11 10 9 8 8 8 9 10 11 10 10 12 14 15 17 19 20 21 22 23 24 24 25 26 27
34 32 30 28 25 23 23 23 22 22 22 23 24 23 23 24 25 27 30 31 31 31 31 31 31 31 31 32 31 29 27 25 22 19 17 17 17 18 19 20 20 18 17 17 18 17 16 15 13 11 10 8 7 7 7 7 7 8 8 8 10 13 15 16 18 21 22 23 23 24 24 23 24 25
36 34 33 30 26 24 23 22 22 22 23 24 24 23 23 24 25 28 31 32 33 34 34 34 34 34 33 32 30 28 25 22 20 19 18 18 19 20 20 19 18 16 15 17 17 17 15 14 13 11 9 7 6 6 6 6 6 7 7 7 9 12 14 16 18 20 21 22 22 23 24 24 25 25
36 36 34 31 28 27 26 25 25 25 25 25 25 24 24 25 26 28 29 30 32 34 34 34 34 33 31 29 27 24 22 21 20 19 19 20 21 22 20 18 16 15 16 17 17 16 15 14 12 10 8 7 6 6 6 6 6 6 7 8 9 11 15 17 18 19 19 20 22 22 23 24 25 25
36 36 35 33 31 31 30 29 28 28 27 26 26 26 26 27 27 27 27 28 30 32 32 32 31 29 26 24 23 22 21 20 19 19 20 21 21 20 18 16 16 16 16 17 16 15 14 13 12 10 8 7 6 6 6 7 7 7 7 8 9 11 14 17 18 19 19 20 21 22 22 23 23 24
38 37 36 36 35 34 33 32 32 32 30 29 29 29 28 28 28 27 27 27 28 30 30 30 28 25 22 21 20 19 18 18 18 18 19 19 18 16 15 15 17 17 17 17 16 15 14 13 12 10 9 7 6 6 7 7 8 7 7 8 9 11 13 16 18 19 19 19 20 20 21 22 22 23
38 38 38 38 37 37 36 36 36 35 33 31 30 30 29 29 28 27 26 25 27 28 28 27 26 23 22 21 19 19 20 20 18 17 18 17 16 16 16 18 19 19 18 18 17 16 15 13 12 11 9 7 6 7 7 8 8 8 8 8 9 11 13 15 17 18 19 18 19 20 21 21 22 23
38 39 40 40 40 40 39 39 38 36 34 32 32 31 30 29 28 27 26 26 26 26 27 27 26 25 25 24 22 23 24 22 19 17 17 17 17 18 19 20 20 20 19 19 19 18 16 14 13 12 10 8 7 7 8 9 8 8 8 8 9 10 12 13 15 17 18 18 19 20 21 22 22 23
41 42 42 42 42 41 41 40 38 36 34 33 32 32 31 30 29 28 27 27 26 26 27 28 28 29 30 28 25 24 24 21 18 17 17 18 19 21 22 22 21 19 18 18 19 19 16 15 14 13 11 10 9 8 8 9 9 8 8 8 9 9 10 11 13 15 17 18 20 21 21 21 22 23
42 43 43 42 42 41 40 39 37 35 34 33 33 32 31 29 29 28 28 28 28 28 28 29 30 31 30 27 24 24 23 19 17 17 18 20 22 22 22 20 19 18 18 19 20 19 16 15 15 14 12 11 11 10 10 10 9 9 9 9 9 9 10 10 11 13 15 17 19 20 20 20 21 22
41 41 41 41 40 40 40 38 36 35 34 34 33 33 31 30 29 27 26 25 26 27 28 29 30 31 30 26 24 23 20 16 16 18 20 22 22 21 20 18 17 18 19 20 20 19 17 16 16 15 13 13 12 11 11 11 11 11 10 10 10 10 10 11 11 12 13 15 18 19 19 20 20 20
40 40 40 40 39 39 39 38 36 36 35 35 35 35 34 32 29 27 26 25 25 26 27 27 27 28 27 25 23 19 16 15 16 18 19 20 21 21 20 19 19 19 19 20 20 18 17 16 16 15 14 14 14 13 12 12 12 12 12 11 11 11 12 12 11 11 12 13 16 17 17 18 19 19
38 39 39 39 39 39 39 38 38 38 37 37 38 37 35 33 31 29 28 26 25 23 23 23 22 21 22 23 20 16 14 15 16 17 18 21 22 22 22 21 20 18 19 20 19 17 16 16 16 15 15 16 16 14 13 13 13 13 13 13 13 13 13 13 12 12 12 12 14 16 16 17 18 18
39 38 38 38 38 38 39 39 39 39 40 40 40 39 36 33 31 29 27 24 21 19 20 20 19 19 21 22 19 14 14 15 16 16 18 21 23 23 23 21 19 18 20 21 18 17 17 17 16 15 16 16 15 13 13 13 14 14 14 15 14 14 14 14 14 13 13 12 13 15 16 16 16 17
41 40 39 39 37 37 39 39 39 40 42 41 39 38 35 31 29 27 24 21 18 18 19 19 19 19 20 19 17 16 17 17 17 16 18 21 23 23 21 19 18 19 21 21 18 17 17 17 16 16 16 15 14 14 14 16 17 16 15 16 16 16 16 16 15 15 14 13 13 15 16 16 16 16
39 39 39 39 39 39 40 39 38 40 42 41 39 36 33 29 27 25 22 19 18 17 18 19 19 19 19 19 19 21 21 19 17 17 19 21 23 21 19 18 18 20 21 20 18 16 16 16 17 18 17 16 16 16 17 18 18 17 16 17 18 17 17 17 17 16 15 13 13 14 15 16 15 15
36 37 37 38 40 42 40 36 36 38 40 39 38 35 30 27 25 23 21 20 20 20 20 21 20 20 22 23 23 22 20 19 18 18 18 20 20 20 19 20 20 21 21 20 18 17 17 18 19 19 18 17 17 18 19 19 19 18 18 18 18 18 18 18 18 18 16 15 14 14 15 16 16 16
36 36 36 37 40 41 37 35 36 38 37 38 37 34 28 25 23 21 20 21 21 21 21 21 22 24 26 25 23 20 20 19 18 17 18 18 19 20 21 21 22 21 20 20 19 19 20 20 20 18 18 17 18 19 20 19 19 19 19 19 19 19 19 19 18 18 18 17 16 15 15 16 17 17
36 35 33 34 38 39 36 35 37 36 34 35 35 31 26 24 22 20 20 21 21 21 20 20 23 26 27 25 23 22 21 19 17 16 18 20 20 20 21 21 21 21 21 21 22 22 21 19 18 17 17 17 18 19 19 19 19 20 20 20 20 20 19 19 19 19 19 19 18 17 17 17 17 17
35 34 33 33 36 36 33 33 35 34 32 33 31 27 24 25 23 20 19 21 22 22 20 20 24 27 26 25 23 22 19 17 16 17 19 20 21 21 21 21 21 21 22 23 23 22 20 18 17 17 17 17 18 19 19 20 20 21 21 21 21 21 20 20 19 18 18 17 18 18 18 17 17 17
Wind_Direction
220 218 216 214 209 210 221 225 227 249 267 271 273 277 287 301 310 315 314 316 319 316 304 291 291 296 302 308 314 319 321 318 313 312 314 316 318 323 329 339 350 357 359 360 358 354 348 339 332 326 322 320 320 320 318 316 313 311 312 313 315 315 314 312 312 312 310 305 301 298 296 296 296 297
218 217 218 217 214 213 220 228 236 247 260 267 270 278 287 295 303 309 311 314 319 323 311 293 285 286 294 304 313 319 319 317 316 318 320 321 326 338 351 3 9 7 4 2 358 352 345 336 329 324 323 323 322 318 313 309 308 310 312 314 315 315 313 312 312 313 313 309 304 301 299 298 296 296
220 219 222 225 222 219 224 235 246 252 257 263 268 276 285 292 298 303 308 312 315 317 309 295 283 282 291 306 315 318 320 319 322 325 323 327 341 358 12 15 12 8 4 359 355 349 341 334 328 326 326 323 318 312 309 309 312 314 314 314 314 313 312 311 312 312 311 309 306 303 302 301 299 297
228 225 228 233 232 230 234 241 250 255 258 263 268 273 280 290 295 296 300 302 302 301 296 286 280 284 297 315 321 325 332 333 334 331 325 332 348 349 2 14 12 6 1 355 350 343 337 332 330 329 326 319 312 309 311 315 318 318 317 316 315 314 314 315 315 316 316 315 312 307 304 302 300 298
234 234 236 239 237 235 238 244 250 256 260 265 268 271 279 288 291 288 291 297 298 296 280 272 278 286 301 323 331 333 341 346 346 338 325 325 324 321 345 6 6 1 354 349 344 338 333 330 328 326 319 312 308 309 315 321 322 322 320 319 318 319 319 319 321 324 326 325 321 316 311 306 302 299
239 239 241 242 241 240 241 243 248 254 260 265 267 271 278 284 284 283 288 295 300 301 288 270 277 286 303 326 338 339 343 348 350 345 327 315 317 327 343 355 358 354 346 342 339 333 330 327 324 318 310 306 308 315 322 324 324 323 322 322 323 322 322 324 328 331 331 330 327 321 314 309 305 301
246 245 245 245 243 244 245 246 249 253 259 263 265 268 273 278 280 283 288 291 296 301 299 291 292 297 311 329 337 339 342 346 347 344 330 314 321 334 341 348 351 346 338 336 334 330 327 324 320 313 306 308 316 322 325 324 324 325 325 326 326 325 327 331 333 334 333 333 331 327 320 311 305 302
249 249 249 248 246 246 248 250 252 253 256 259 262 264 267 273 279 284 287 289 291 295 298 302 307 308 315 327 335 337 339 342 342 340 332 318 322 336 342 346 347 340 333 332 329 326 324 323 320 313 310 315 320 322 323 324 325 326 328 331 331 330 333 336 335 335 334 334 333 332 329 321 311 304
252 251 251 251 251 251 252 253 255 256 259 261 263 265 267 272 278 281 284 286 287 289 293 300 305 309 313 321 332 336 336 337 337 336 334 324 322 336 348 350 342 333 331 329 324 325 326 325 322 317 314 316 317 319 323 326 328 331 334 335 334 335 337 338 337 336 335 335 334 335 334 330 323 314
254 255 254 253 253 255 256 257 258 260 263 264 264 265 267 270 274 277 280 283 284 286 289 295 300 305 309 315 328 335 334 334 333 332 333 331 329 337 352 354 339 330 334 331 324 328 330 325 322 316 312 311 313 318 325 329 333 337 338 337 336 338 339 338 337 336 336 337 336 337 337 335 331 326
252 254 256 255 254 255 257 259 260 260 262 263 263 264 267 270 272 275 277 278 280 283 286 291 295 299 303 311 323 331 332 331 331 329 328 332 334 335 346 353 336 328 338 330 324 333 331 321 316 309 308 309 314 322 330 335 339 340 339 338 339 340 339 338 338 338 339 340 339 338 337 337 336 334
252 253 254 255 254 255 256 258 260 261 263 265 265 264 266 269 270 272 274 276 277 280 283 287 290 293 297 306 319 327 329 330 327 324 323 328 333 333 339 346 330 324 338 332 325 334 329 315 308 305 308 313 319 328 335 339 340 340 339 340 340 340 339 339 341 343 343 343 342 339 337 336 337 336
252 253 254 253 253 254 256 258 259 261 264 266 266 265 265 267 268 271 274 276 277 279 282 284 287 289 292 304 317 324 329 328 322 318 319 324 328 329 334 339 323 321 338 340 328 331 327 314 307 307 311 317 324 332 338 340 340 340 340 342 341 340 340 342 346 349 349 347 345 343 340 337 335 333
249 251 254 254 254 254 254 255 257 259 262 264 265 265 264 265 268 270 272 273 275 279 281 282 286 286 289 302 317 322 326 323 314 311 314 319 322 322 325 332 324 322 334 339 330 328 326 316 311 313 316 322 328 335 339 341 341 340 342 343 342 341 343 346 350 353 354 353 351 348 345 340 334 329
246 248 252 254 255 256 255 255 256 259 261 262 262 263 263 264 266 265 265 267 270 275 279 281 285 286 290 301 314 320 322 316 305 303 308 312 315 315 315 323 327 325 328 332 328 326 324 317 314 317 320 324 330 336 340 341 339 340 342 344 343 344 347 350 353 356 358 359 358 355 351 346 337 326
246 247 250 253 254 255 256 257 258 260 261 261 261 262 263 263 260 255 257 263 267 272 277 279 280 282 290 299 310 318 317 307 298 297 301 305 307 306 307 315 321 320 320 322 322 321 320 316 315 318 320 325 331 336 338 338 338 341 343 344 345 349 351 352 353 357 1 4 3 1 358 353 345 329
248 247 249 250 251 253 255 257 260 261 261 261 261 262 263 261 256 251 252 257 263 270 274 277 277 280 289 296 304 312 310 302 295 295 297 299 299 298 300 307 311 312 313 314 312 313 316 315 315 317 319 324 331 333 334 337 340 341 342 344 349 352 353 352 354 357 2 8 10 6 3 0 356 343
248 247 247 248 249 251 253 254 258 260 262 263 264 265 265 263 258 254 252 253 259 265 271 276 279 283 289 293 297 302 301 297 295 294 294 293 291 291 294 299 304 307 308 308 305 307 313 316 316 316 318 324 329 329 332 338 341 341 342 346 351 354 353 353 355 357 1 10 15 12 7 6 5 359
249 247 247 247 248 249 251 252 255 258 261 265 267 268 267 265 261 258 255 255 258 262 268 273 277 281 285 287 290 292 292 292 293 293 291 288 286 287 290 294 300 304 305 305 301 302 312 319 317 314 317 324 327 326 331 338 341 341 343 347 350 353 354 354 357 359 1 7 14 17 14 10 10 9
250 248 247 248 248 249 250 251 253 256 261 265 268 269 268 266 263 259 256 256 256 259 263 266 271 276 279 282 286 286 286 288 291 290 287 282 282 283 284 289 296 299 302 302 298 300 311 319 317 313 315 321 324 324 330 337 341 342 344 347 350 352 354 355 357 359 2 6 10 16 18 15 12 11
252 250 248 249 250 250 250 251 252 256 262 265 267 268 268 267 264 259 255 254 254 254 257 262 266 271 276 280 283 283 284 286 288 288 285 282 280 278 279 285 292 295 298 299 297 299 308 315 314 310 311 317 321 325 331 337 342 344 345 348 351 353 353 354 355 358 2 6 8 11 16 17 15 12
252 250 249 249 250 250 249 249 251 255 260 263 265 266 268 269 266 260 255 254 255 256 258 263 267 272 276 278 278 279 281 283 285 287 287 282 275 273 276 282 286 288 291 293 294 297 303 310 311 307 308 314 320 326 333 338 342 344 347 351 353 354 354 354 354 356 1 7 9 10 12 14 14 12
251 251 251 250 250 249 249 249 250 253 257 260 261 264 267 268 265 262 260 261 262 263 265 267 269 272 273 274 274 277 280 283 286 289 286 277 270 270 275 278 278 282 287 290 291 293 298 305 306 301 303 312 319 328 336 341 344 346 349 354 356 356 357 357 356 357 2 7 11 11 11 11 11 11
250 251 251 250 250 249 249 249 250 252 255 257 259 261 264 264 263 265 267 268 268 268 269 269 269 270 272 274 277 279 282 284 287 287 281 271 267 269 271 271 273 280 286 287 287 289 294 299 298 293 297 307 316 327 336 342 347 349 351 355 359 359 359 0 360 2 6 9 12 13 11 9 8 9
250 251 251 251 250 250 250 250 252 254 256 259 260 261 263 264 265 269 270 270 271 271 270 270 271 273 276 278 281 283 283 285 286 284 276 267 266 267 265 265 272 281 285 284 283 285 290 293 291 287 294 303 313 324 334 341 347 351 353 356 360 1 1 2 5 9 11 13 14 15 14 10 5 4
250 251 252 251 250 251 251 253 255 258 260 262 263 263 264 267 270 272 273 273 273 272 272 273 274 276 278 280 282 283 283 283 284 283 276 269 267 265 263 267 277 283 281 278 277 280 285 286 282 282 289 299 313 329 338 344 350 353 356 0 2 3 3 4 7 12 15 15 16 17 16 13 8 5
252 253 253 253 253 253 254 254 257 259 261 263 265 266 267 271 273 274 274 273 273 272 272 273 273 275 277 280 281 280 280 282 284 282 278 273 268 265 268 275 280 279 272 268 271 277 280 277 273 275 283 292 310 331 341 349 357 357 359 4 8 9 10 8 10 14 16 15 15 16 15 13 11 11
254 255 256 257 258 259 258 258 260 263 264 266 268 269 271 273 274 273 272 272 271 270 270 270 272 274 276 276 277 278 280 281 280 278 276 273 268 268 274 278 276 268 262 263 269 275 275 271 268 270 274 285 308 328 338 348 360 4 5 10 15 17 17 16 14 14 15 14 13 12 10 8 8 8
255 257 258 260 261 261 261 260 262 264 265 267 269 270 271 271 270 269 269 269 268 267 267 268 269 271 272 272 274 276 277 276 275 274 274 273 272 273 274 271 264 258 259 265 269 271 268 264 265 267 270 282 307 326 334 339 350 3 12 20 24 23 23 22 20 16 15 14 13 11 8 6 4 2
256 258 259 260 261 261 261 261 262 264 266 268 268 268 268 267 266 267 268 268 266 266 266 266 266 268 269 269 270 271 271 271 272 273 274 273 273 271 268 262 257 256 260 264 265 261 258 258 260 263 267 279 302 322 330 332 338 352 7 19 27 28 27 26 24 21 17 14 14 13 10 7 6 4
254 256 257 257 258 258 259 260 262 263 265 265 264 263 264 265 266 267 268 268 265 262 262 263 264 264 264 262 262 262 262 264 267 271 272 272 268 262 256 254 254 254 258 259 253 246 247 250 253 258 264 276 300 320 326 325 327 339 357 11 20 25 26 26 24 22 19 15 12 11 10 9 8 7
252 254 254 254 255 256 257 259 261 262 262 260 259 260 261 264 266 267 267 264 260 256 256 258 258 256 255 255 256 255 255 256 260 265 266 262 257 251 248 246 246 248 251 249 242 237 239 242 245 251 260 273 293 313 320 318 319 328 345 360 8 15 20 21 20 19 18 15 10 8 9 9 8 9
252 253 253 253 253 254 256 258 259 258 257 256 256 257 259 262 264 264 263 262 260 256 254 255 255 255 254 253 253 256 259 260 260 260 258 252 246 243 241 240 242 247 251 247 241 237 238 239 240 245 255 265 279 298 310 309 310 319 335 348 357 5 12 14 14 14 13 12 10 9 7 7 8 11
252 252 253 253 254 254 255 256 255 253 252 252 253 256 259 261 262 262 262 264 265 261 256 255 256 256 256 256 256 258 261 261 259 256 251 244 239 236 234 237 242 247 248 246 242 240 239 237 236 240 248 257 266 283 297 302 304 310 322 332 341 351 360 3 6 8 8 7 7 7 5 5 8 12
253 253 253 253 253 252 252 251 250 249 249 251 254 257 259 260 261 261 262 264 266 263 258 256 257 259 262 263 261 257 255 254 255 253 245 238 235 234 233 239 246 245 240 240 242 243 241 236 233 237 245 251 259 273 286 293 296 300 308 317 325 334 342 348 353 358 2 3 4 3 2 4 8 12
253 253 254 253 251 249 248 248 248 249 250 252 254 256 256 256 256 255 256 260 265 265 261 257 256 258 261 264 264 260 253 248 249 250 245 236 232 231 233 237 240 237 237 241 244 244 240 234 232 236 243 246 252 266 280 287 291 295 301 310 317 322 325 330 336 343 351 357 360 360 360 2 6 9
252 252 252 251 250 250 249 249 250 252 253 254 255 254 254 253 251 250 252 256 260 263 263 259 256 256 258 262 264 260 252 246 245 246 240 231 227 228 228 228 230 232 235 238 239 239 237 235 234 238 240 242 248 262 275 282 286 290 297 305 313 316 313 314 321 329 338 347 353 355 356 360 4 7
251 251 250 249 249 249 250 251 252 253 254 255 255 254 254 251 248 249 253 254 255 258 258 254 251 249 250 254 255 247 239 240 241 238 233 229 227 228 230 231 235 235 230 228 230 233 235 235 236 238 240 243 250 262 275 280 281 285 292 299 306 308 306 307 313 318 323 333 343 347 350 354 360 3
251 251 251 250 249 249 249 250 252 253 254 254 255 256 255 251 248 248 249 247 248 253 250 243 240 242 247 250 248 240 235 237 236 235 234 231 228 230 232 234 234 228 221 220 223 227 231 234 238 241 245 250 257 267 275 277 277 280 285 291 297 302 302 304 307 309 312 318 329 337 342 346 351 356
251 251 252 252 251 250 249 250 252 254 255 255 256 256 253 249 246 244 242 242 246 251 247 240 238 240 242 240 235 231 232 233 233 236 236 232 232 233 232 228 224 221 219 218 221 227 231 236 242 244 247 254 260 264 267 271 274 278 281 284 291 296 298 301 303 303 303 307 315 325 332 335 338 345
251 252 253 253 252 250 247 246 248 250 251 253 254 252 248 244 239 234 232 237 244 247 245 242 238 236 235 234 234 234 231 228 228 231 233 234 235 233 225 218 218 221 220 219 223 230 233 235 239 244 248 254 258 261 265 271 276 279 279 282 287 292 295 297 298 297 296 297 302 311 319 324 326 332
250 251 252 252 250 247 245 244 244 243 245 247 249 248 245 239 230 223 223 231 237 241 242 240 238 237 237 237 239 238 232 226 227 231 235 235 228 219 213 213 217 222 225 224 224 229 234 235 239 246 254 259 262 265 270 275 278 279 280 283 286 290 293 294 294 293 291 289 291 297 304 310 314 319
246 246 248 250 249 247 246 245 244 242 241 241 243 244 240 230 220 219 224 231 236 242 245 244 245 246 243 239 237 235 232 233 236 236 232 225 214 208 211 217 220 225 230 228 225 228 235 238 242 249 257 263 267 270 274 277 278 279 282 284 287 290 292 291 289 288 286 284 283 285 290 296 302 308
246 247 250 252 253 252 249 244 242 243 242 241 241 240 232 219 212 216 228 235 239 246 251 254 255 251 243 237 234 231 231 235 236 227 217 211 207 209 215 220 223 227 227 223 223 228 234 238 243 251 259 265 269 272 274 276 278 280 283 286 288 289 288 287 285 283 282 280 279 278 281 286 292 298
247 247 249 252 254 253 249 243 240 242 242 242 242 237 226 217 214 219 232 242 246 249 251 251 249 244 236 231 229 228 227 227 222 215 211 210 211 215 219 223 227 227 222 220 224 229 233 239 246 254 260 264 266 270 273 275 278 282 284 286 287 288 288 287 286 284 282 280 277 276 276 279 284 289